{"data":{"norad_id":61602,"epoch":"2026-09-19T06:23:37.310784Z","epoch_age_seconds":124683,"freshness":"FRESH","line1":"1 61602U 24188J   26262.26640406  .00000626  00000+0  17300-2 0  9990","line2":"2 61602  87.8964   2.3704 0001334 109.4145 250.7127 13.11419153 96794","mean_motion":13.11419153,"eccentricity":0.0001334,"inclination_deg":87.8964,"raan_deg":2.3704,"arg_perigee_deg":109.4145,"mean_anomaly_deg":250.7127,"bstar":0.00173,"rev_number":9679,"period_min":109.804710165,"perigee_km":1216.6608912472,"apogee_km":1218.687453668,"semimajor_km":7595.8111724576,"source":"CELESTRAK","updated_at":"2026-09-20T09:00:44.799739Z"}}